Time,TemperatureF,DewpointF,PressureIn,WindDirection,WindDirectionDegrees,WindSpeedMPH,WindSpeedGustMPH,Humidity,HourlyPrecipIn,Conditions,Clouds,dailyrainin,SolarRadiationWatts/m^2,SoftwareType,DateUTC
2013-07-10 00:02:00,83.0,70.0,-100.00,South,169,13.0,21.0,66,0.00,,,0.00,0.000000,,2013-07-10 05:02:00,
2013-07-10 00:12:00,83.0,70.0,-100.00,South,169,13.0,21.0,66,0.00,,,0.00,0.000000,,2013-07-10 05:12:00,
2013-07-10 00:22:00,83.0,70.0,-100.00,South,169,13.0,21.0,66,0.00,,,0.00,0.000000,,2013-07-10 05:22:00,
2013-07-10 00:32:00,83.0,70.0,-100.00,South,169,13.0,21.0,66,0.00,,,0.00,0.000000,,2013-07-10 05:32:00,
2013-07-10 01:01:00,81.0,69.0,-100.00,South,175,15.0,27.0,68,0.00,,,0.00,0.000000,,2013-07-10 06:01:00,
2013-07-10 01:11:00,81.0,69.0,-100.00,South,175,15.0,27.0,68,0.00,,,0.00,0.000000,,2013-07-10 06:11:00,
2013-07-10 01:21:00,81.0,69.0,-100.00,South,175,15.0,27.0,68,0.00,,,0.00,0.000000,,2013-07-10 06:21:00,
2013-07-10 01:32:00,81.0,69.0,-100.00,South,175,15.0,27.0,68,0.00,,,0.00,0.000000,,2013-07-10 06:32:00,
2013-07-10 02:01:00,79.0,69.0,-100.00,South,174,11.0,18.0,72,0.00,,,0.00,0.000000,,2013-07-10 07:01:00,
2013-07-10 02:11:00,79.0,69.0,-100.00,South,174,11.0,18.0,72,0.00,,,0.00,0.000000,,2013-07-10 07:11:00,
2013-07-10 02:22:00,79.0,69.0,-100.00,South,174,11.0,18.0,72,0.00,,,0.00,0.000000,,2013-07-10 07:22:00,
2013-07-10 02:33:00,79.0,69.0,-100.00,South,174,11.0,18.0,72,0.00,,,0.00,0.000000,,2013-07-10 07:33:00,
2013-07-10 03:01:00,78.0,70.0,-100.00,South,181,10.0,16.0,77,0.00,,,0.00,0.000000,,2013-07-10 08:01:00,
2013-07-10 03:11:00,78.0,70.0,-100.00,South,181,10.0,16.0,77,0.00,,,0.00,0.000000,,2013-07-10 08:11:00,
2013-07-10 03:23:00,78.0,70.0,-100.00,South,181,10.0,16.0,77,0.00,,,0.00,0.000000,,2013-07-10 08:23:00,
2013-07-10 03:33:00,78.0,70.0,-100.00,South,181,10.0,16.0,77,0.00,,,0.00,0.000000,,2013-07-10 08:33:00,
2013-07-10 04:02:00,76.0,69.0,-100.00,South,187,8.0,15.0,80,0.00,,,0.00,0.000000,,2013-07-10 09:02:00,
2013-07-10 04:12:00,76.0,69.0,-100.00,South,187,8.0,15.0,80,0.00,,,0.00,0.000000,,2013-07-10 09:12:00,
2013-07-10 04:22:00,76.0,69.0,-100.00,South,187,8.0,15.0,80,0.00,,,0.00,0.000000,,2013-07-10 09:22:00,
2013-07-10 04:32:00,76.0,69.0,-100.00,South,187,8.0,15.0,80,0.00,,,0.00,0.000000,,2013-07-10 09:32:00,
2013-07-10 05:01:00,75.0,70.0,-100.00,South,176,6.0,11.0,84,0.00,,,0.00,0.000000,,2013-07-10 10:01:00,
2013-07-10 05:13:00,75.0,70.0,-100.00,South,176,6.0,11.0,84,0.00,,,0.00,0.000000,,2013-07-10 10:13:00,
2013-07-10 05:23:00,75.0,70.0,-100.00,South,176,6.0,11.0,84,0.00,,,0.00,0.000000,,2013-07-10 10:23:00,
2013-07-10 05:32:00,75.0,70.0,-100.00,South,176,6.0,11.0,84,0.00,,,0.00,0.000000,,2013-07-10 10:32:00,
2013-07-10 06:02:00,74.0,70.0,-100.00,South,184,7.0,11.0,88,0.00,,,0.00,0.000000,,2013-07-10 11:02:00,
2013-07-10 06:11:00,74.0,70.0,-100.00,South,184,7.0,11.0,88,0.00,,,0.00,0.000000,,2013-07-10 11:11:00,
2013-07-10 06:22:00,74.0,70.0,-100.00,South,184,7.0,11.0,88,0.00,,,0.00,0.000000,,2013-07-10 11:22:00,
2013-07-10 06:33:00,74.0,70.0,-100.00,South,184,7.0,11.0,88,0.00,,,0.00,0.000000,,2013-07-10 11:33:00,
2013-07-10 09:01:00,78.0,72.0,-100.00,SSW,197,11.0,16.0,82,-99.99,,,0.00,196.000000,,2013-07-10 14:01:00,
2013-07-10 09:11:00,78.0,72.0,-100.00,SSW,197,11.0,16.0,82,-99.99,,,0.00,196.000000,,2013-07-10 14:11:00,
2013-07-10 09:22:00,78.0,72.0,-100.00,SSW,197,11.0,16.0,82,-99.99,,,0.00,196.000000,,2013-07-10 14:22:00,
2013-07-10 09:33:00,78.0,72.0,-100.00,SSW,197,11.0,16.0,82,-99.99,,,0.00,196.000000,,2013-07-10 14:33:00,
2013-07-10 10:01:00,81.0,71.0,-100.00,SSW,194,11.0,18.0,72,0.00,,,0.00,400.000000,,2013-07-10 15:01:00,
2013-07-10 10:11:00,81.0,71.0,-100.00,SSW,194,11.0,18.0,72,0.00,,,0.00,400.000000,,2013-07-10 15:11:00,
2013-07-10 10:22:00,81.0,71.0,-100.00,SSW,194,11.0,18.0,72,0.00,,,0.00,400.000000,,2013-07-10 15:22:00,
2013-07-10 10:34:00,81.0,71.0,-100.00,SSW,194,11.0,18.0,72,0.00,,,0.00,400.000000,,2013-07-10 15:34:00,
2013-07-10 11:01:00,85.0,70.0,-100.00,SSW,197,11.0,18.0,61,0.00,,,0.00,578.000000,,2013-07-10 16:01:00,
2013-07-10 11:11:00,85.0,70.0,-100.00,SSW,197,11.0,18.0,61,0.00,,,0.00,578.000000,,2013-07-10 16:11:00,
2013-07-10 11:22:00,85.0,70.0,-100.00,SSW,197,11.0,18.0,61,0.00,,,0.00,578.000000,,2013-07-10 16:22:00,
2013-07-10 11:33:00,85.0,70.0,-100.00,SSW,197,11.0,18.0,61,0.00,,,0.00,578.000000,,2013-07-10 16:33:00,
2013-07-10 12:02:00,88.0,69.0,-100.00,SW,230,9.0,16.0,53,0.00,,,-99.99,729.000000,,2013-07-10 17:02:00,
2013-07-10 12:11:00,88.0,69.0,-100.00,SW,230,9.0,16.0,53,0.00,,,-99.99,729.000000,,2013-07-10 17:11:00,
2013-07-10 12:23:00,88.0,69.0,-100.00,SW,230,9.0,16.0,53,0.00,,,-99.99,729.000000,,2013-07-10 17:23:00,
2013-07-10 12:32:00,88.0,69.0,-100.00,SW,230,9.0,16.0,53,0.00,,,-99.99,729.000000,,2013-07-10 17:32:00,
2013-07-10 13:02:00,91.0,67.0,-100.00,SSW,204,8.0,16.0,45,0.00,,,0.00,833.000000,,2013-07-10 18:02:00,
2013-07-10 13:11:00,91.0,67.0,-100.00,SSW,204,8.0,16.0,45,0.00,,,0.00,833.000000,,2013-07-10 18:11:00,
2013-07-10 13:21:00,91.0,67.0,-100.00,SSW,204,8.0,16.0,45,0.00,,,0.00,833.000000,,2013-07-10 18:21:00,
2013-07-10 13:32:00,91.0,67.0,-100.00,SSW,204,8.0,16.0,45,0.00,,,0.00,833.000000,,2013-07-10 18:32:00,
2013-07-10 14:01:00,94.0,65.0,-100.00,SSW,192,9.0,17.0,39,0.00,,,0.00,889.000000,,2013-07-10 19:01:00,
2013-07-10 14:11:00,94.0,65.0,-100.00,SSW,192,9.0,17.0,39,0.00,,,0.00,889.000000,,2013-07-10 19:11:00,
2013-07-10 14:21:00,94.0,65.0,-100.00,SSW,192,9.0,17.0,39,0.00,,,0.00,889.000000,,2013-07-10 19:21:00,
2013-07-10 14:32:00,94.0,65.0,-100.00,SSW,192,9.0,17.0,39,0.00,,,0.00,889.000000,,2013-07-10 19:32:00,
2013-07-10 15:01:00,96.0,63.0,-100.00,SSE,161,8.0,20.0,34,0.00,,,0.00,894.000000,,2013-07-10 20:01:00,
2013-07-10 15:11:00,96.0,63.0,-100.00,SSE,161,8.0,20.0,34,0.00,,,0.00,894.000000,,2013-07-10 20:11:00,
2013-07-10 15:22:00,96.0,63.0,-100.00,SSE,161,8.0,20.0,34,0.00,,,0.00,894.000000,,2013-07-10 20:22:00,
2013-07-10 15:32:00,96.0,63.0,-100.00,SSE,161,8.0,20.0,34,0.00,,,0.00,894.000000,,2013-07-10 20:32:00,
2013-07-10 16:01:00,97.0,60.0,-100.00,SE,146,10.0,17.0,30,0.00,,,0.00,803.000000,,2013-07-10 21:01:00,
2013-07-10 16:11:00,97.0,60.0,-100.00,SE,146,10.0,17.0,30,0.00,,,0.00,803.000000,,2013-07-10 21:11:00,
2013-07-10 16:22:00,97.0,60.0,-100.00,SE,146,10.0,17.0,30,0.00,,,0.00,803.000000,,2013-07-10 21:22:00,
2013-07-10 16:32:00,97.0,60.0,-100.00,SE,146,10.0,17.0,30,0.00,,,0.00,803.000000,,2013-07-10 21:32:00,
2013-07-10 17:01:00,99.0,60.0,-100.00,SSE,161,10.0,18.0,28,0.00,,,0.00,779.000000,,2013-07-10 22:01:00,
2013-07-10 17:11:00,99.0,60.0,-100.00,SSE,161,10.0,18.0,28,0.00,,,0.00,779.000000,,2013-07-10 22:11:00,
2013-07-10 17:21:00,99.0,60.0,-100.00,SSE,161,10.0,18.0,28,0.00,,,0.00,779.000000,,2013-07-10 22:21:00,
2013-07-10 17:33:00,99.0,60.0,-100.00,SSE,161,10.0,18.0,28,0.00,,,0.00,779.000000,,2013-07-10 22:33:00,
2013-07-10 17:35:00,98.0,62.0,-100.00,SE,143,9.0,19.0,31,0.00,,,0.00,648.000000,,2013-07-10 22:35:00,
2013-07-10 18:01:00,98.0,62.0,-100.00,SE,143,9.0,19.0,31,0.00,,,0.00,648.000000,,2013-07-10 23:01:00,
2013-07-10 18:11:00,98.0,62.0,-100.00,SE,143,9.0,19.0,31,0.00,,,0.00,648.000000,,2013-07-10 23:11:00,
2013-07-10 18:22:00,98.0,62.0,-100.00,SE,143,9.0,19.0,31,0.00,,,0.00,648.000000,,2013-07-10 23:22:00,
2013-07-10 18:32:00,98.0,62.0,-100.00,SE,143,9.0,19.0,31,0.00,,,0.00,648.000000,,2013-07-10 23:32:00,
2013-07-10 19:01:00,97.0,61.0,-100.00,South,169,7.0,18.0,31,0.00,,,0.00,409.000000,,2013-07-11 00:01:00,
2013-07-10 19:11:00,97.0,61.0,-100.00,South,169,7.0,18.0,31,0.00,,,0.00,409.000000,,2013-07-11 00:11:00,
2013-07-10 19:22:00,97.0,61.0,-100.00,South,169,7.0,18.0,31,0.00,,,0.00,409.000000,,2013-07-11 00:22:00,
2013-07-10 19:32:00,97.0,61.0,-100.00,South,169,7.0,18.0,31,0.00,,,0.00,409.000000,,2013-07-11 00:32:00,
2013-07-10 20:01:00,95.0,60.0,-100.00,SE,140,6.0,15.0,32,0.00,,,0.00,222.000000,,2013-07-11 01:01:00,
2013-07-10 20:11:00,95.0,60.0,-100.00,SE,140,6.0,15.0,32,0.00,,,0.00,222.000000,,2013-07-11 01:11:00,
2013-07-10 20:22:00,95.0,60.0,-100.00,SE,140,6.0,15.0,32,0.00,,,0.00,222.000000,,2013-07-11 01:22:00,
2013-07-10 20:32:00,95.0,60.0,-100.00,SE,140,6.0,15.0,32,0.00,,,0.00,222.000000,,2013-07-11 01:32:00,
2013-07-10 21:02:00,91.0,62.0,-100.00,SE,144,5.0,11.0,38,0.00,,,0.00,52.000000,,2013-07-11 02:02:00,
2013-07-10 21:11:00,91.0,62.0,-100.00,SE,144,5.0,11.0,38,0.00,,,0.00,52.000000,,2013-07-11 02:11:00,
2013-07-10 21:22:00,91.0,62.0,-100.00,SE,144,5.0,11.0,38,0.00,,,0.00,52.000000,,2013-07-11 02:22:00,
2013-07-10 21:32:00,91.0,62.0,-100.00,SE,144,5.0,11.0,38,0.00,,,0.00,52.000000,,2013-07-11 02:32:00,
2013-07-10 22:01:00,88.0,63.0,-100.00,SSE,154,6.0,10.0,43,0.00,,,0.00,1.000000,,2013-07-11 03:01:00,
2013-07-10 22:11:00,88.0,63.0,-100.00,SSE,154,6.0,10.0,43,0.00,,,0.00,1.000000,,2013-07-11 03:11:00,
2013-07-10 22:21:00,88.0,63.0,-100.00,SSE,154,6.0,10.0,43,0.00,,,0.00,1.000000,,2013-07-11 03:21:00,
2013-07-10 22:33:00,88.0,63.0,-100.00,SSE,154,6.0,10.0,43,0.00,,,0.00,1.000000,,2013-07-11 03:33:00,
2013-07-10 23:01:00,86.0,68.0,-100.00,South,174,11.0,17.0,55,0.00,,,0.00,0.000000,,2013-07-11 04:01:00,
2013-07-10 23:12:00,86.0,68.0,-100.00,South,174,11.0,17.0,55,0.00,,,0.00,0.000000,,2013-07-11 04:12:00,
2013-07-10 23:22:00,86.0,68.0,-100.00,South,174,11.0,17.0,55,0.00,,,0.00,0.000000,,2013-07-11 04:22:00,
2013-07-10 23:32:00,86.0,68.0,-100.00,South,174,11.0,17.0,55,0.00,,,0.00,0.000000,,2013-07-11 04:32:00,